Kitsissorsuit

KL  EN  DA
ASIAQ
Weather Now GREENLAND SURVEY
Updated [WGT/WGST] Temperature [°C] Wind [m/s] Air pressure [hPa] Relative humidity [%] Precipitation [mm]
Present Wind chill Speed Max
21.01 19:00-27,60,0n/an/a101377n/a
21.01 18:00-26,70,0n/an/a101377n/a
21.01 17:00-26,30,0n/an/a101378n/a
21.01 16:00-25,10,0n/an/a101279n/a
21.01 15:00-25,10,0n/an/a101279n/a
21.01 14:00-24,90,0n/an/a101179n/a
21.01 13:00-25,10,0n/an/a101179n/a
21.01 12:00-25,30,0n/an/a101079n/a
21.01 11:00-25,60,0n/an/a100978n/a
21.01 10:00-25,20,0n/an/a100978n/a
21.01 09:00-24,90,0n/an/a100879n/a
21.01 08:00-25,80,0n/an/a100778n/a
21.01 07:00-26,80,0n/an/a100677n/a
21.01 06:00-27,00,0n/an/a100677n/a
21.01 05:00-27,90,0n/an/a100576n/a
21.01 04:00-27,00,0n/an/a100477n/a
21.01 03:00-26,30,0n/an/a100478n/a
21.01 02:00-26,00,0n/an/a100378n/a
21.01 01:00-26,10,0n/an/a100278n/a
21.01 00:00-25,60,0n/an/a100278n/a
20.01 23:00-24,80,0n/an/a100279n/a
20.01 22:00-25,20,0n/an/a100179n/a
20.01 21:00-25,60,0n/an/a100178n/a
20.01 20:00-25,70,0n/an/a100178n/a
20.01 19:00-24,70,0n/an/a100179n/a
Position: (74.0605555555,-57.723055555555)

[Back]